EDT,Max TemperatureF,Mean TemperatureF,Min TemperatureF,Max Dew PointF,MeanDew PointF,Min DewpointF,Max Humidity, Mean Humidity, Min Humidity, Max Sea Level PressureIn, Mean Sea Level PressureIn, Min Sea Level PressureIn, Max VisibilityMiles, Mean VisibilityMiles, Min VisibilityMiles, Max Wind SpeedMPH, Mean Wind SpeedMPH, Max Gust SpeedMPH,PrecipitationIn, CloudCover, Events, WindDirDegrees
2012-10-1,86,77,68,77,74,70,100,87,62,29.88,29.82,29.77,10,6,0,13,5,17,0.00,7,Fog-Rain,104
2012-10-2,84,78,71,77,72,66,100,85,55,30.02,29.88,29.78,10,10,5,13,8,18,0.00,6,Rain-Thunderstorm,193
2012-10-3,78,73,68,70,67,64,100,84,61,30.25,30.14,30.02,10,10,7,7,1,,0.00,3,Rain,253
2012-10-4,80,73,64,72,67,63,100,87,57,30.31,30.25,30.21,10,9,3,8,1,,0.00,4,Rain,239
2012-10-5,78,69,60,68,64,61,100,81,54,30.25,30.16,30.08,10,9,4,6,1,,0.00,0,,117
2012-10-6,86,72,59,70,62,59,100,75,43,30.08,30.01,29.93,10,9,2,10,2,,0.00,0,,229
2012-10-7,82,71,60,68,64,55,100,82,54,30.12,30.02,29.98,10,9,5,14,3,18,0.00,2,Thunderstorm,293
2012-10-8,59,55,51,55,52,50,100,84,77,30.19,30.14,30.09,10,10,4,14,10,18,0.00,8,,28
2012-10-9,64,56,46,52,51,46,100,88,64,30.21,30.16,30.12,10,9,5,12,6,,0.00,4,,359
2012-10-10,77,60,44,59,52,45,100,82,47,30.18,30.14,30.08,10,9,4,15,3,22,0.00,3,,274
2012-10-11,71,58,46,54,50,46,100,77,43,30.33,30.26,30.18,10,10,7,13,2,18,0.00,0,,66
2012-10-12,80,65,50,59,55,50,100,77,42,30.31,30.24,30.19,10,10,10,8,1,,0.00,0,,360
2012-10-13,73,62,51,57,54,50,100,76,53,30.44,30.36,30.30,10,10,10,14,6,17,0.00,1,,60
2012-10-14,80,66,51,70,60,52,100,85,51,30.34,30.22,30.09,10,10,4,10,4,,0.00,4,Rain,105
2012-10-15,80,70,59,72,62,48,100,79,44,30.09,29.94,29.83,10,10,10,17,6,23,0.00,3,,233
2012-10-16,71,58,46,52,46,43,93,65,38,30.03,29.96,29.92,10,10,5,9,4,,0.00,0,,11
2012-10-17,73,60,48,54,49,45,100,73,36,30.04,29.97,29.92,10,10,10,9,2,,0.00,0,,136
2012-10-18,78,66,53,68,60,54,100,83,54,29.94,29.88,29.82,10,9,4,12,4,16,0.00,3,Rain,156
2012-10-19,77,64,50,63,47,37,100,61,26,29.90,29.84,29.79,10,10,5,17,6,32,0.00,1,Thunderstorm,242
2012-10-20,73,58,44,50,45,41,100,66,38,29.99,29.90,29.85,10,10,10,15,4,23,0.00,0,,255
2012-10-21,71,58,44,52,46,43,100,70,40,30.18,30.13,30.00,10,10,10,13,2,16,0.00,0,,45
2012-10-22,77,60,44,54,49,45,100,72,38,30.28,30.22,30.17,10,10,10,6,1,,0.00,0,,70
2012-10-23,78,61,44,55,49,45,100,68,32,30.25,30.19,30.14,10,10,10,6,1,,0.00,0,,135
2012-10-24,80,65,50,64,56,48,100,74,44,30.24,30.18,30.12,10,8,0,7,1,,0.00,2,Fog,101
2012-10-25,82,68,53,68,61,54,100,74,48,30.16,30.11,30.06,10,9,5,10,4,18,0.00,2,,81
2012-10-26,78,68,59,66,59,55,100,70,44,30.09,30.01,29.92,10,10,7,20,7,25,0.00,0,,35
2012-10-27,73,66,60,61,60,54,100,79,61,29.91,29.78,29.70,10,10,10,18,11,25,0.00,3,,359
2012-10-28,75,64,53,55,51,43,88,67,44,29.75,29.71,29.65,10,10,10,15,9,23,0.00,2,,334
2012-10-29,62,52,41,41,36,32,87,57,39,29.76,29.70,29.62,10,10,10,20,11,31,0.00,3,,295
2012-10-30,59,52,44,34,31,27,62,47,36,29.77,29.64,29.59,10,10,10,23,13,36,0.00,3,,266
2012-10-31,64,52,41,32,29,25,70,46,24,29.87,29.81,29.76,10,10,10,21,9,28,0.00,0,,250